DateTimeUTC,F1_A11,F1_S11,BsB_S11,BsG_S11,BsR_S11,BbsB_S11,BbsG_S11,BbsR_S11,BaB_A11,BaG_A11,BaR_A11,Tu_S11,T_S11,Uu_S11,U_S11,P_S11,T1_A11
2021-08-17T06:00:00Z,00000200,20000000,,,,,,,-000.16,-000.45,-000.02,18.4,25.1,07.2,04.8,0675.7,30.9
2021-08-17T06:01:00Z,00000200,20000000,,,,,,,-000.15,0000.22,0000.13,18.4,25.1,07.2,04.8,0675.7,30.9
2021-08-17T06:02:00Z,00000200,20000000,,,,,,,0000.22,0000.13,-000.16,18.4,25.1,07.2,04.8,0675.7,30.9
2021-08-17T06:03:00Z,00000200,60000000,,,,,,,0000.70,0000.27,0000.59,18.4,25.1,07.2,04.8,0675.7,30.9
2021-08-17T06:04:00Z,00000200,40000000,0001.95,0001.32,0000.33,0000.61,0000.28,-000.48,0000.17,0000.52,0000.08,18.5,24.9,07.3,05.0,0676.6,30.9
2021-08-17T06:05:00Z,00000200,00000000,0002.16,0001.61,0001.07,0000.07,0000.30,0000.53,0000.50,0000.24,0000.50,18.6,24.9,07.3,05.0,0676.7,30.9
2021-08-17T06:06:00Z,00000200,00000000,0001.94,0001.69,0000.97,0000.61,0000.15,0000.27,0000.13,0000.38,0000.34,18.6,24.9,07.3,04.9,0676.7,30.9
2021-08-17T06:07:00Z,00000200,00000000,0002.27,0001.42,0000.72,-000.12,0000.15,0000.17,0000.47,0000.07,-000.12,18.5,24.9,07.3,04.9,0676.7,30.9
2021-08-17T06:08:00Z,00000200,00000000,0002.16,0001.75,0001.07,0000.33,0000.41,0000.51,0000.35,0000.93,0000.42,18.5,24.9,07.3,05.0,0676.7,30.9
2021-08-17T06:09:00Z,00000200,00000000,0002.23,0001.34,0000.86,0000.47,0000.12,0000.42,0000.27,0000.11,0000.38,18.5,24.9,07.4,05.0,0676.8,30.9
2021-08-17T06:10:00Z,00000200,00000000,0003.05,0001.44,0001.23,0000.52,-000.06,0000.50,0000.68,0000.58,0000.28,18.5,24.8,07.3,05.0,0676.8,30.9
2021-08-17T06:11:00Z,00000200,00000000,0002.11,0001.28,0001.25,-000.14,0000.22,0000.29,0000.29,0000.23,0000.46,18.5,24.8,07.2,04.9,0676.8,30.9
2021-08-17T06:12:00Z,00000200,00000000,0001.60,0001.50,0000.88,0000.40,0000.16,0000.06,0000.65,0000.49,0000.33,18.6,24.8,07.4,05.0,0676.8,30.9
2021-08-17T06:13:00Z,00000200,00000000,0002.29,0001.35,0001.21,0000.41,0000.19,0000.43,0000.61,0000.46,0000.30,18.6,24.9,07.3,04.9,0676.8,30.9
2021-08-17T06:14:00Z,00000200,00000000,0003.41,0001.99,0001.01,0000.59,0000.50,0000.06,0000.43,0000.29,0000.27,18.6,24.9,07.4,05.0,0676.8,30.9
2021-08-17T06:15:00Z,00000200,00000000,0003.91,0001.51,0001.22,0000.26,0000.25,0000.45,0000.32,0000.64,0000.49,18.6,24.8,07.5,05.1,0676.8,30.9
2021-08-17T06:16:00Z,00000200,00000000,0002.95,0001.75,0001.43,0000.30,0000.16,0000.64,0000.44,0000.38,0000.55,18.6,24.9,07.5,05.1,0676.8,30.9
2021-08-17T06:17:00Z,00000200,00000000,0002.09,0001.37,0000.73,0000.46,0000.31,0000.37,0000.80,0000.21,0000.30,18.6,24.9,07.5,05.1,0676.8,30.9
2021-08-17T06:18:00Z,00000200,00000000,0003.07,0001.70,0001.40,0000.91,0000.54,0000.49,0000.49,0000.55,0000.28,18.6,24.8,07.5,05.1,0676.8,30.9
2021-08-17T06:19:00Z,00000200,00000000,0002.11,0001.39,0001.36,0000.49,0000.43,0000.33,0000.29,0000.61,0000.66,18.6,24.8,07.6,05.2,0676.9,30.9
2021-08-17T06:20:00Z,00000200,00000000,0002.37,0001.55,0000.84,0000.02,0000.46,0000.21,0000.71,0000.27,-000.17,18.6,24.8,07.6,05.2,0676.9,30.9
2021-08-17T06:21:00Z,00000200,00000000,0002.18,0001.42,0001.06,0000.92,0000.45,0000.50,-000.02,0000.55,0000.69,18.6,24.8,07.6,05.2,0676.8,30.9
2021-08-17T06:22:00Z,00000200,00000000,0002.28,0001.26,0001.06,0000.61,0000.38,0000.19,0000.67,0000.45,0000.34,18.5,24.8,07.7,05.2,0676.8,30.9
2021-08-17T06:23:00Z,00000200,00000000,0002.94,0001.45,0001.18,0000.14,0000.41,0000.38,0000.39,0000.19,0000.04,18.5,24.8,07.7,05.3,0676.8,30.9
2021-08-17T06:24:00Z,00000200,00000000,0002.44,0001.87,0000.87,0000.27,0000.36,0000.66,0000.41,0000.41,0000.18,18.5,24.8,07.7,05.3,0676.8,30.9
2021-08-17T06:25:00Z,00000200,00000000,0002.66,0001.39,0000.89,0000.24,0000.49,0000.32,0000.78,0000.54,0000.64,18.5,24.8,07.8,05.3,0676.8,30.9
2021-08-17T06:26:00Z,00000200,00000000,0002.16,0001.84,0000.86,0000.25,0000.33,0000.15,0000.37,0000.65,0000.52,18.5,24.8,07.8,05.3,0676.8,30.9
2021-08-17T06:27:00Z,00000200,00000000,0003.21,0001.59,0001.17,-000.08,0000.34,0000.33,0000.45,0000.31,0000.07,18.6,24.8,07.8,05.4,0676.8,30.9
2021-08-17T06:28:00Z,00000200,00000000,0002.51,0001.70,0001.10,0000.18,0000.57,0000.53,0000.25,0000.40,0000.48,18.6,24.8,07.9,05.4,0676.8,30.9
2021-08-17T06:29:00Z,00000200,00000000,0002.34,0001.47,0001.34,0000.47,0000.05,0000.51,0000.65,0000.34,0000.52,18.6,24.8,07.8,05.3,0676.8,30.9
2021-08-17T06:30:00Z,00000200,00000000,0002.49,0001.64,0000.95,-000.19,0000.20,0000.15,0000.43,0000.59,0000.20,18.6,24.8,07.8,05.3,0676.8,30.9
2021-08-17T06:31:00Z,00000200,00000000,0003.11,0001.49,0001.15,0000.04,0000.50,0000.20,0000.27,0000.10,0000.55,18.6,24.8,07.8,05.3,0676.8,30.9
2021-08-17T06:32:00Z,00000200,00000000,0002.62,0001.17,0000.90,0000.28,0000.29,0000.15,0000.43,0000.54,-000.06,18.6,24.8,07.8,05.3,0676.9,30.9
2021-08-17T06:33:00Z,00000200,00000000,0002.38,0001.17,0000.82,0000.10,0000.50,0000.47,0000.32,0000.53,0000.61,18.6,24.8,07.8,05.3,0676.8,30.9
2021-08-17T06:34:00Z,00000200,00000000,0001.42,0000.79,0000.76,-000.29,0000.01,0000.28,-000.06,-000.06,-000.19,18.6,24.8,07.8,05.3,0676.8,30.9
2021-08-17T06:35:00Z,00000200,00000000,0002.06,0001.15,0000.67,0000.23,0000.22,0000.15,0000.30,0000.43,0000.27,18.6,24.8,07.7,05.3,0676.8,30.9
2021-08-17T06:36:00Z,00000200,00000000,0002.01,0001.00,0000.96,-000.26,0000.23,0000.27,0000.64,0000.05,-000.01,18.6,24.8,07.7,05.3,0676.8,30.9
2021-08-17T06:37:00Z,00000200,00000000,0001.49,0001.05,0000.71,-000.38,0000.46,0000.17,-000.26,-000.06,0000.04,18.5,24.8,07.7,05.3,0676.8,30.9
2021-08-17T06:38:00Z,00000200,00000000,0001.37,0001.26,0000.83,-000.18,0000.12,0000.51,0000.55,0000.45,0000.38,18.5,24.8,07.6,05.2,0676.8,30.9
2021-08-17T06:39:00Z,00000200,00000000,0001.75,0001.14,0000.76,0000.43,0000.63,0000.39,0000.40,0000.40,0000.33,18.5,24.8,07.6,05.2,0676.9,30.9
2021-08-17T06:40:00Z,00000200,00000000,0002.49,0001.60,0001.24,0000.60,0000.35,0000.45,-000.02,0000.26,0000.14,18.5,24.7,07.6,05.2,0677.0,30.9
2021-08-17T06:41:00Z,00000200,00000000,0002.32,0001.47,0000.64,-000.05,0000.12,0000.46,0000.78,0000.20,0000.35,18.5,24.7,07.6,05.2,0677.0,30.9
2021-08-17T06:42:00Z,00000200,00000000,0002.65,0001.94,0001.18,0000.25,0000.37,0000.21,0000.24,0000.40,0000.42,18.5,24.7,07.7,05.2,0676.9,30.9
2021-08-17T06:43:00Z,00000200,00000000,0003.12,0002.11,0001.03,0000.42,0000.29,0000.26,0000.30,0000.43,0000.08,18.5,24.7,07.7,05.2,0676.9,30.9
2021-08-17T06:44:00Z,00000200,00000000,0002.49,0001.83,0001.28,0000.29,0000.60,0000.44,0000.45,0000.23,0000.25,18.5,24.7,07.6,05.2,0676.9,30.9
2021-08-17T06:45:00Z,00000200,00000000,0003.19,0002.01,0001.17,0000.52,0000.09,0000.21,0000.52,0000.40,0000.57,18.5,24.7,07.6,05.2,0676.9,30.9
2021-08-17T06:46:00Z,00000200,00000000,0003.73,0001.97,0001.37,0000.51,0000.15,0000.34,0000.44,0000.41,0000.33,18.5,24.7,07.6,05.2,0676.9,30.9
2021-08-17T06:47:00Z,00000200,00000000,0002.58,0002.22,0001.26,0000.43,0000.27,0000.57,0000.31,0000.69,0000.11,18.5,24.7,07.4,05.1,0676.9,30.9
2021-08-17T06:48:00Z,00000200,00000000,0003.23,0002.27,0001.03,0000.88,0000.15,0000.23,0000.40,0000.39,0000.44,18.4,24.7,07.5,05.1,0677.0,30.9
2021-08-17T06:49:00Z,00000200,00000000,0003.06,0001.88,0001.23,-000.06,0000.23,0000.41,0000.43,0000.30,0000.06,18.4,24.7,07.5,05.1,0677.0,30.9
2021-08-17T06:50:00Z,00000200,00000000,0003.45,0001.84,0001.10,0000.58,0000.24,0000.20,0000.51,0000.32,0000.47,18.4,24.7,07.3,05.0,0677.0,30.9
2021-08-17T06:51:00Z,00000200,00000000,0002.15,0001.92,0001.45,0000.70,0000.63,0000.13,0000.69,0000.66,0000.26,18.4,24.7,07.4,05.1,0677.0,30.9
2021-08-17T06:52:00Z,00000200,00000000,0002.46,0002.13,0000.99,0000.35,0000.35,0000.40,0000.29,0000.32,0000.43,18.4,24.7,07.3,05.0,0677.0,30.9
2021-08-17T06:53:00Z,00000200,00000000,0002.30,0001.65,0001.40,0000.47,0000.33,0000.65,0000.31,0000.24,0000.22,18.4,24.7,07.4,05.0,0676.9,30.9
2021-08-17T06:54:00Z,00000200,00000000,0002.26,0001.32,0001.10,0000.23,0000.27,0000.19,0000.35,0000.66,0000.40,18.4,24.6,07.4,05.0,0676.9,30.9
2021-08-17T06:55:00Z,00000200,00000000,0002.61,0001.38,0000.80,-000.04,0000.35,0000.27,0000.74,0000.39,0000.14,18.4,24.6,07.4,05.1,0677.0,30.8
2021-08-17T06:56:00Z,00000200,00000000,0002.71,0001.58,0000.88,-000.44,0000.32,0000.18,0000.60,0000.35,0000.39,18.4,24.6,07.4,05.0,0677.1,30.8
2021-08-17T06:57:00Z,00000200,40000000,,,,,,,0000.12,0000.24,0000.34,18.5,24.7,07.6,05.2,0677.0,30.9
2021-08-17T06:58:00Z,00000200,60000000,,,,,,,0000.24,0000.06,0000.20,18.3,24.8,07.5,05.0,0676.1,30.9
2021-08-17T06:59:00Z,00000200,20000000,,,,,,,-000.03,0000.54,-000.02,18.3,24.9,07.5,05.0,0676.1,30.9
